Location: ??
(35.5052°N, 139.7262°E)
Time: 01:30:11
(UTC+00:00)

NOSS 3-1 (A) - Pass Details

Date: 20 June 2021
Orbit: 729 x 1483 km, 63.4° (Epoch: 23 July)

Event Time Altitude Azimuth Distance (km) Brightness Sun altitude
Exits shadow 15:01:55 60° 346° (NNW) 932 3.5 -30.9°
Drops below altitude 10° 15:07:05 10° 27° (NNE) 2,598 6.5 -30.8°
Sets 15:09:51 0° 30° (NNE) 3,656 7.5 -30.7°
